GFSGL_con_3kmhel_318.txt.gz
Helicity
249 291 271 250 257 258 218 182 165 167 155 142 128 132 125 125 124 113 100 90 84 83 71 55 62 65 70 70 72 73 78 83 89 116 118 122 111 115 123 109 95 91 91
268 290 275 265 263 239 196 171 153 142 140 131 114 100 92 85 84 87 74 66 54 53 59 68 67 64 60 57 63 65 71 76 77 85 102 103 93 108 113 136 129 104 106
269 282 296 288 250 235 206 181 165 144 120 93 80 70 65 72 65 57 49 45 44 48 49 50 49 55 60 66 65 68 66 63 65 70 97 92 92 103 119 110 108 102 92
243 293 298 299 326 262 217 200 177 142 115 96 83 71 64 62 52 39 43 48 45 41 39 40 42 45 47 57 66 62 67 79 82 82 83 99 102 125 114 105 145 133 126
189 263 270 292 275 228 196 169 169 151 132 92 86 79 77 69 66 59 58 58 56 53 52 52 49 41 21 33 65 65 71 79 76 68 67 75 102 119 128 148 110 111 126
144 199 263 285 236 182 194 170 150 132 116 127 115 101 96 86 43 31 53 82 72 62 54 57 57 42 40 29 24 24 49 94 73 83 77 70 71 109 119 136 124 113 115
126 196 249 259 239 211 191 169 145 130 126 109 104 124 100 88 54 50 53 98 88 76 66 65 65 54 24 66 39 51 65 52 36 100 110 98 72 69 76 63 79 93 96
168 180 205 216 218 201 174 156 150 144 124 125 110 95 98 84 53 56 59 101 100 82 78 75 79 79 78 76 85 93 89 96 86 81 85 83 87 86 93 85 82 87 89
210 199 203 231 244 211 164 136 127 126 121 111 112 103 100 93 63 69 81 120 100 85 86 87 88 89 58 48 86 103 103 112 81 58 54 43 31 20 24 70 98 90 87
247 238 209 179 152 143 145 151 155 146 131 122 108 103 78 99 69 76 90 133 109 94 95 87 50 61 38 29 78 105 118 97 116 110 105 71 56 66 51 69 69 84 96
158 149 144 138 143 150 169 169 154 146 138 126 123 120 106 95 96 62 59 116 117 111 100 90 84 47 39 40 42 103 95 78 82 93 102 77 71 67 73 77 83 98 90
137 135 131 130 120 129 127 125 129 130 132 125 120 113 107 100 58 65 64 63 65 108 104 90 80 38 27 24 37 30 20 26 54 87 84 61 53 58 71 83 85 98 112
108 108 107 101 114 118 118 118 126 119 119 114 118 115 112 101 105 81 81 71 56 78 83 68 21 16 6 21 20 40 28 72 96 93 74 65 69 61 58 69 75 74 68
101 97 88 105 97 93 96 104 113 113 118 120 126 121 107 104 100 110 98 99 83 83 64 50 36 20 5 26 27 45 76 82 88 81 82 83 76 66 66 72 71 65 75
64 68 75 91 92 100 104 108 107 101 109 113 108 107 116 105 93 64 71 111 106 74 69 85 71 56 76 52 93 78 78 87 90 100 91 75 68 69 75 82 83 70 67
73 70 79 94 99 100 103 102 77 59 46 40 39 65 95 43 23 32 31 34 29 27 61 92 113 105 99 90 104 91 91 66 84 79 87 91 84 80 80 89 93 90 78
85 86 108 99 104 106 107 110 105 91 75 78 68 48 42 35 29 26 26 28 28 41 64 59 62 89 114 102 93 89 85 81 76 84 78 83 79 78 50 68 81 80 76
89 73 110 108 116 121 125 118 118 115 102 96 78 64 47 35 28 28 32 42 61 58 59 68 95 90 84 79 81 84 84 73 60 67 63 64 76 79 73 77 81 78 75
96 103 109 124 120 111 130 126 128 114 103 86 77 69 63 57 59 55 55 60 60 80 95 95 73 67 72 75 77 81 81 78 56 64 76 83 88 92 87 87 81 21 17
108 94 108 150 149 142 145 135 124 111 99 88 77 70 63 68 67 60 64 68 81 73 55 53 55 59 66 73 77 82 83 69 67 76 83 96 95 96 100 90 95 97 102
119 131 108 168 162 155 145 132 114 103 90 81 79 66 29 54 34 36 34 31 35 41 40 41 52 60 65 66 79 73 64 62 73 88 91 91 99 108 108 102 105 108 103
130 154 155 148 149 140 124 116 106 96 98 79 69 52 30 38 21 24 30 29 27 21 27 37 42 48 56 61 61 56 52 57 76 96 96 94 97 109 114 116 125 129 135
124 144 142 133 126 76 85 100 84 80 77 77 67 49 47 36 29 30 31 28 29 28 31 39 40 39 46 49 55 63 50 56 79 102 93 97 103 112 121 133 144 144 154
160 152 135 117 113 104 106 99 80 55 44 49 46 39 34 29 27 27 28 28 30 34 37 39 38 37 44 39 55 88 111 111 107 110 110 102 109 101 122 139 157 168 187
143 132 124 97 116 112 79 60 54 50 46 42 30 21 20 19 23 29 29 32 36 43 51 50 48 51 48 41 29 18 67 40 54 93 147 166 164 160 176 185 189 203 197
158 139 128 110 89 73 62 52 48 42 34 28 12 13 16 19 27 38 43 48 51 55 69 66 70 67 51 33 24 21 0 -17 14 19 82 149 200 237 256 260 244 272 246

GFSGL_con_3kmhel_321.txt.gz
Helicity
166 223 257 257 265 260 256 243 241 208 172 138 128 137 145 137 137 145 143 135 140 138 135 128 133 132 141 134 129 130 131 131 151 150 122 120 106 98 102 94 91 92 93
214 244 227 240 254 265 255 213 122 134 119 123 129 133 132 132 129 141 147 144 134 119 97 89 86 75 78 74 76 73 80 84 93 119 118 115 102 101 105 128 112 98 106
217 241 246 241 238 227 197 145 124 105 132 135 136 129 120 113 115 107 102 87 77 75 67 69 73 75 78 78 76 75 76 75 77 87 110 107 117 119 133 119 135 136 112
244 254 245 225 224 215 185 129 125 141 131 124 120 110 97 84 82 76 67 56 61 66 65 64 65 71 77 82 78 76 84 86 83 82 86 88 97 129 120 153 185 153 170
205 233 242 260 229 202 158 156 153 136 123 111 103 91 80 73 73 62 62 67 68 71 73 71 70 56 50 55 72 75 77 90 93 90 92 106 107 123 129 136 127 164 158
156 190 231 252 227 219 185 165 150 147 137 131 113 98 81 75 42 33 49 69 66 69 69 63 63 51 51 32 27 26 62 104 95 100 90 95 111 131 127 117 119 129 143
119 153 190 217 193 170 162 145 124 127 144 124 114 100 84 73 41 35 29 72 74 69 63 59 59 56 50 64 47 41 57 52 40 92 116 112 106 104 92 96 102 103 100
110 131 162 191 172 167 144 133 134 136 121 109 88 83 84 73 48 44 47 81 88 80 77 71 69 64 54 57 75 83 72 71 53 60 77 73 81 77 79 71 84 96 107
122 122 135 168 184 149 130 124 131 127 115 111 110 92 81 74 53 58 71 102 90 83 84 79 75 68 38 30 56 87 78 70 32 24 43 49 29 11 28 76 91 97 88
179 156 148 163 178 164 141 116 108 117 107 107 97 90 64 76 57 63 73 117 104 93 89 74 39 45 27 17 61 88 90 61 92 101 111 77 53 53 40 64 65 86 92
177 169 163 154 145 124 131 137 149 158 154 139 114 108 97 92 88 63 60 100 109 107 98 91 89 51 41 32 29 93 92 62 71 86 112 116 107 91 82 78 79 89 92
128 130 124 112 106 112 124 135 139 133 125 116 113 101 98 94 69 71 67 60 56 107 115 105 94 48 51 42 52 47 36 34 106 88 101 109 96 81 69 58 61 70 81
101 97 96 92 104 108 114 110 112 110 104 95 100 100 104 99 107 78 83 75 70 85 93 65 35 39 32 44 28 33 41 74 100 116 102 90 87 65 51 58 61 56 51
87 74 68 76 76 73 78 79 87 85 87 93 96 94 96 96 97 105 101 103 86 95 85 85 71 67 54 63 61 59 89 95 109 116 110 95 82 81 65 66 64 59 73
64 57 58 58 68 67 68 72 86 86 97 100 103 110 116 108 106 74 81 115 122 87 67 97 95 92 84 77 82 92 85 104 102 117 113 93 72 66 62 71 80 79 79
77 66 60 71 75 82 86 89 79 73 62 57 63 92 97 50 31 50 45 47 49 50 80 112 128 127 134 125 110 100 96 72 101 98 90 86 80 78 76 78 84 94 83
85 80 87 101 100 105 113 122 115 111 95 107 114 97 82 67 59 59 57 53 51 55 89 93 104 90 102 115 118 131 99 93 95 94 89 86 77 78 59 72 81 82 85
84 68 91 95 112 121 120 124 126 129 132 130 106 101 85 78 70 69 78 85 87 82 82 71 74 75 103 98 115 107 93 86 92 99 85 76 86 80 76 76 81 84 88
87 82 86 102 115 115 126 125 128 141 136 132 117 97 94 82 68 69 78 82 59 58 70 72 81 89 92 77 79 79 78 79 74 80 82 87 94 102 90 82 81 32 32
79 62 87 118 126 139 143 152 150 144 137 131 122 110 99 97 105 97 80 63 61 62 80 71 58 52 54 62 72 77 75 68 65 68 72 84 96 97 86 81 88 86 88
94 100 88 161 179 161 156 150 143 138 132 124 117 96 42 64 50 45 45 42 43 41 31 34 39 45 51 57 66 72 71 56 59 67 76 84 89 94 92 92 92 92 91
104 107 119 137 151 149 138 134 133 120 111 111 94 72 29 51 49 46 40 44 47 43 40 28 19 25 38 51 57 66 51 45 56 69 81 95 94 88 84 84 89 87 94
110 107 115 128 134 103 110 120 125 112 90 79 67 56 54 56 54 52 49 46 40 41 41 36 34 35 40 51 63 61 47 54 70 73 82 82 83 81 84 84 87 90 113
128 124 127 129 133 129 120 100 95 76 64 69 59 52 53 49 45 38 36 34 35 39 37 35 37 36 40 39 39 42 45 54 61 66 69 63 70 60 82 106 126 137 157
129 137 136 125 116 111 99 93 72 59 53 49 43 38 40 31 28 32 37 35 40 41 42 38 40 45 50 55 44 31 23 10 -12 22 118 150 149 150 169 180 186 193 190
139 140 132 134 124 105 85 63 49 50 50 46 45 41 27 25 33 39 45 49 52 53 55 54 62 74 77 54 44 38 25 8 -8 -16 32 122 176 201 207 208 198 261 241

GFSGL_con_3kmhel_327.txt.gz
Helicity
101 115 127 128 149 174 185 180 183 193 201 214 219 221 218 204 153 141 148 145 146 150 154 155 166 162 166 169 170 176 182 186 194 180 161 146 141 134 125 114 111 119 126
95 113 121 146 157 165 152 150 161 182 204 209 198 170 130 112 117 116 135 143 147 152 156 157 161 154 158 158 163 175 178 180 177 178 160 151 135 118 113 127 121 112 128
108 132 153 162 172 169 165 145 157 179 182 171 132 85 82 106 119 125 130 130 137 138 134 134 132 134 138 131 127 127 126 126 125 133 138 119 108 106 115 107 119 115 116
119 134 151 158 170 171 177 181 168 139 117 105 85 85 81 87 98 105 114 117 115 114 112 108 103 100 100 108 112 114 114 113 111 110 111 112 102 106 97 100 115 95 128
141 148 142 167 193 196 196 191 154 119 109 98 98 95 88 85 97 105 108 108 114 108 97 85 76 71 65 72 92 88 92 101 109 113 112 110 119 122 104 91 107 124 128
137 149 172 188 180 166 190 159 127 132 109 93 108 117 109 111 84 82 88 93 82 73 72 68 71 76 82 73 70 56 73 113 105 116 123 120 122 113 109 106 98 106 133
116 136 155 170 182 184 198 172 150 133 123 108 118 113 104 101 95 93 81 80 78 79 75 77 77 74 79 94 100 100 111 97 66 113 107 111 110 105 114 123 119 119 131
106 127 139 150 161 182 173 142 134 142 123 126 118 125 128 110 90 86 86 106 85 77 76 80 80 83 84 88 96 103 101 110 105 108 102 98 106 111 114 117 129 133 142
101 113 130 153 164 162 156 147 135 143 136 133 137 128 114 98 94 97 101 108 94 82 78 78 84 89 79 94 108 111 116 116 93 84 84 68 58 52 75 155 169 146 128
101 108 120 141 154 153 149 141 144 130 126 125 119 105 87 99 114 104 98 97 96 89 86 76 63 75 73 89 108 122 131 117 132 147 150 121 93 93 86 105 102 127 127
121 121 124 124 140 152 157 153 134 140 136 132 122 131 120 104 99 93 91 103 95 91 91 93 97 71 82 86 82 124 119 93 97 116 143 133 114 100 88 89 109 120 127
108 111 114 123 127 136 149 151 147 145 137 138 140 128 107 87 77 71 75 75 67 88 105 112 113 70 69 66 78 70 53 47 97 140 162 168 121 105 95 102 98 103 100
126 117 108 109 116 117 127 128 136 133 126 109 100 89 87 92 95 80 80 80 83 106 107 74 42 41 53 58 40 44 49 100 113 123 109 124 129 114 118 108 96 87 88
95 84 81 91 99 98 95 87 92 92 91 83 80 74 79 91 98 112 107 107 81 88 74 89 74 62 62 87 105 103 118 128 116 116 118 105 111 132 121 123 112 107 103
76 72 69 66 75 71 68 68 71 68 84 86 88 103 117 118 122 90 87 121 125 95 84 115 123 126 134 143 138 125 115 112 112 111 115 121 120 134 135 141 123 113 110
83 77 74 84 88 89 90 85 69 60 60 53 57 114 131 76 62 81 95 102 123 125 137 156 163 156 146 136 133 143 142 114 123 128 135 125 128 156 140 134 114 120 100
78 84 79 87 99 105 103 99 91 103 100 99 109 133 144 133 112 119 118 116 120 195 186 160 180 168 155 144 133 137 132 120 119 132 137 140 132 132 111 119 102 83 81
78 66 86 95 104 105 102 102 113 123 129 146 158 161 142 139 146 116 107 130 169 144 117 119 129 127 129 127 111 105 104 110 112 111 133 143 139 135 128 114 95 89 85
84 84 99 99 96 86 99 111 126 136 143 152 164 155 147 142 125 112 124 152 130 119 111 115 116 114 112 110 111 104 105 117 112 117 119 123 117 114 109 99 92 50 43
85 70 82 96 97 103 119 136 140 145 152 155 165 159 159 150 150 134 121 118 117 111 99 89 90 95 96 99 95 100 94 95 102 107 100 94 81 88 95 87 88 89 90
98 91 75 100 114 127 134 145 148 151 150 154 145 131 84 124 123 98 95 90 101 98 94 89 84 82 76 69 69 70 79 70 69 72 77 73 78 93 91 88 85 89 96
102 100 107 115 127 139 138 143 143 145 145 148 137 122 68 108 95 81 80 76 81 86 88 83 76 69 67 65 65 62 66 64 62 63 67 73 78 83 76 75 82 88 93
108 107 111 120 135 117 122 134 132 135 134 137 133 114 104 100 94 89 82 76 73 68 66 65 57 56 59 56 57 57 49 43 56 66 67 68 64 66 69 75 86 88 94
123 118 116 120 138 131 127 118 124 112 126 135 127 112 104 91 83 79 76 70 63 57 55 54 52 31 12 11 21 38 48 50 55 52 53 55 59 53 67 80 94 97 106
125 123 123 116 127 124 122 121 123 132 141 130 111 102 95 87 77 73 69 58 53 51 48 41 6 12 17 22 20 23 25 39 31 40 66 72 72 76 95 108 112 116 125
117 119 121 136 138 143 139 133 140 141 127 117 109 102 89 77 70 65 57 51 45 41 35 31 30 37 40 30 43 59 72 63 33 28 7 89 121 137 143 141 131 157 151

GFSGL_con_3kmhel_330.txt.gz
Helicity
101 114 123 122 126 140 154 157 170 180 180 192 195 202 203 192 179 178 173 162 169 164 163 164 172 161 167 179 183 185 194 187 184 177 163 145 147 133 122 106 93 93 105
88 100 110 114 124 140 142 147 152 164 168 168 183 192 191 184 153 101 94 103 120 138 143 148 155 142 153 153 154 165 163 171 166 166 158 147 127 115 116 120 112 101 114
89 102 108 109 116 123 131 133 141 145 146 149 149 135 106 84 86 102 111 122 134 141 149 158 157 157 156 144 138 140 135 138 141 144 146 128 116 109 112 101 107 104 108
97 97 101 107 128 141 148 148 136 143 147 138 118 93 89 93 99 107 122 136 144 143 139 133 132 128 124 121 111 106 104 111 111 117 115 110 94 94 84 86 96 75 100
110 114 123 149 178 186 183 175 164 149 118 102 100 104 102 105 105 110 110 105 105 110 117 113 100 84 74 71 90 91 95 105 104 102 107 106 107 100 88 75 83 87 86
127 145 159 178 185 190 193 174 161 138 119 133 125 117 113 108 79 86 103 112 106 102 90 77 76 85 96 90 85 78 77 112 120 117 114 103 101 89 80 79 74 86 96
138 148 166 179 186 182 186 176 150 123 136 121 122 120 123 117 105 106 105 100 88 78 72 79 79 77 76 87 94 95 101 96 72 103 115 106 106 86 89 93 85 81 81
118 128 144 165 183 195 192 175 169 149 126 123 128 136 144 127 120 112 103 100 89 87 82 75 74 74 71 74 77 85 85 91 88 90 88 84 91 94 96 98 98 93 103
94 108 126 148 166 178 177 168 170 148 141 134 132 132 132 124 113 100 103 108 100 92 85 78 76 78 55 54 84 94 98 98 71 63 65 50 45 38 61 129 132 136 121
88 101 122 150 164 171 176 177 168 142 131 127 131 127 113 110 107 103 104 107 100 95 86 76 53 61 44 54 95 111 124 103 121 136 145 123 96 93 71 105 121 132 132
106 112 124 131 148 166 196 179 164 148 153 152 148 144 121 104 105 99 91 100 95 91 86 88 95 55 74 83 84 130 126 105 114 133 162 171 160 136 118 108 119 142 163
131 131 120 115 115 128 148 155 145 145 143 142 132 127 114 100 83 83 84 81 69 87 96 97 93 66 81 74 83 80 70 74 132 147 168 176 171 193 154 135 138 135 122
115 105 98 107 120 117 134 141 148 139 137 130 126 114 99 88 84 70 69 71 72 84 80 56 29 41 67 114 138 141 103 130 140 157 147 140 150 146 149 143 120 110 121
110 97 91 97 106 106 105 101 109 108 106 91 78 63 60 67 71 89 78 82 68 79 77 95 78 70 72 86 109 136 138 139 138 142 138 130 135 155 140 135 134 139 148
78 71 70 73 80 84 84 78 77 64 76 76 65 71 77 84 94 82 84 106 128 123 133 174 192 178 145 136 141 141 141 135 136 125 120 114 107 123 116 127 129 144 155
84 72 69 80 81 84 89 87 68 60 50 42 44 87 97 64 66 83 90 88 94 93 141 183 170 142 130 139 137 121 117 106 120 121 121 124 122 135 139 140 164 170 152
85 81 78 86 91 96 97 100 96 103 100 100 96 97 108 97 96 86 83 92 99 156 156 134 138 139 143 133 127 122 118 107 112 120 113 114 110 115 99 137 144 150 137
84 72 88 93 94 99 103 99 100 98 100 107 114 115 108 99 110 107 98 110 148 127 116 118 118 118 123 126 121 110 102 99 98 103 110 117 111 115 150 152 151 142 127
89 92 102 102 103 96 104 107 107 111 110 114 124 122 121 129 111 98 115 152 131 125 122 125 124 120 119 108 104 107 114 112 94 91 110 118 110 123 139 137 128 79 71
83 76 86 97 95 95 104 114 118 120 119 119 125 124 147 155 149 141 139 129 129 129 121 110 106 108 105 105 103 103 95 88 89 87 81 88 90 90 106 105 108 106 103
98 89 70 103 107 105 106 115 123 131 130 131 124 123 87 130 144 141 133 123 123 117 107 105 98 99 94 93 96 95 89 80 71 71 68 63 71 81 87 88 92 90 94
109 104 104 104 113 120 120 123 130 137 129 126 122 120 92 125 131 119 109 98 90 95 97 96 90 90 92 95 88 85 81 77 65 64 60 58 60 67 78 85 85 82 81
122 117 111 109 115 97 109 135 133 134 130 127 126 121 130 140 134 124 106 89 87 83 82 84 78 69 74 81 80 72 72 77 78 77 73 70 68 69 75 75 73 76 88
120 115 113 113 128 122 116 114 119 97 114 125 130 137 143 139 127 112 106 93 86 76 72 71 72 66 64 64 58 63 69 63 69 74 71 61 57 41 54 67 77 86 98
134 123 122 121 125 118 120 125 132 131 128 127 137 144 137 127 116 108 95 91 81 69 59 61 62 59 60 50 42 37 37 48 35 58 78 75 61 55 70 82 88 96 100
129 127 122 134 130 125 133 133 133 136 133 141 142 139 130 119 109 101 90 77 73 62 50 48 52 50 33 31 33 33 53 69 58 63 34 76 115 111 115 120 117 138 131